Location: North Evanston
(42.0634°N, 87.6976°W)
Time: 14:30:48
(UTC+00:00)

Vanguard 2 - Pass Details

Date: 14 May 2026
Orbit: 553 x 2894 km, 32.9° (Epoch: 8 June)

Event Time Altitude Azimuth Distance (km) Brightness Sun altitude
Rises 07:59:37 0° 235° (SW) 6,497 - -22.0°
Reaches altitude 10° 08:03:57 10° 231° (SW) 5,615 - -21.6°
Exits shadow 08:10:02 26° 220° (SW) 4,464 10.7 -20.9°
Maximum altitude 08:20:29 51° 162° (SSE) 3,290 10.4 -19.7°
Drops below altitude 10° 08:34:33 10° 93° (E) 4,848 12.1 -18.0°
Sets 08:37:58 0° 88° (E) 5,588 12.6 -17.6°
